Back to catalog

ONEWEB-0172

AliveCommunicationsPO
NORAD 48071·PAYLOAD·🇬🇧 United Kingdom

Launched Mar 25, 2021 from Vostochny Cosmodrome

Loading…

Next Passes (next 24 hours)

TLE

FreshSource: CelesTrak SupGP

Epoch: Sep 14, 2026, 07:14 UTC

1 48071C 21025AF  26257.30155507 -.00002315  00000+0 -63477-2 0  2576
2 48071  87.8921 302.4972 0001794  92.5777  18.3111 13.13471705    10

Track ONEWEB-0172 in real time with AllMySat

Download on the App Store